Home > Weather > Chorzów > Past weeks

Flag for Poland Past Weather in Chorzów, Poland — Yesterday and Last 2 Weeks

Now
59 °F

Clear.


Feels Like: 58 °F
Forecast: 57 / 72 °F
Wind: 6 mph from East

Location: Katowice Airport

Current Time: May 29, 2016 at 4:05:10 AM

Latest Report: May 29, 2016 at 3:30 AM


Visibility: 10 mi

Pressure: 29.89 "Hg

Humidity: 94%

Dew Point: 57 °F

Location of ChorzówLocation

Past Weather in Chorzów — Graph

°F

Chorzów Temperature Yesterday

Maximum temperature yesterday: 79 °F (at 3:00 PM)
Minimum temperature yesterday: 55 °F (at 3:00 AM)
Average temperature yesterday: 68 °F

High & Low Weather Summary for the Past Weeks

 TemperatureHumidityPressure
High81 °F (May 23, 1:30 PM)100% (May 14, 3:30 AM)30.09 "Hg (May 14, 3:30 AM)
Low36 °F (May 16, 2:00 AM)26% (May 23, 4:00 PM)29.39 "Hg (May 14, 3:00 AM)
Average57 °F71%29.91 "Hg
* Reported May 14 3:00 AM — May 29 3:00 AM, Chorzów, Weather by CustomWeather, © 2016

Note: Actual official high and low records may vary slightly from our data, if they occured in-between our weather recording intervals... More about our weather records

Advertising

Chorzów Weather History for the Previous 24 Hours

Scroll right to see more
 ConditionsComfort  
Time TempWeatherWind HumidityBarometerVisibility
3:00 AM
Sun, May 29
59 °FClear.2 mph94%29.89 "Hg10 mi
2:30 AM63 °FClear.5 mph83%29.92 "Hg10 mi
2:00 AM61 °FPassing clouds.3 mph88%29.92 "HgN/A
1:30 AM61 °FClear.3 mph88%29.92 "Hg10 mi
1:00 AM61 °FClear.2 mph88%29.92 "Hg10 mi
12:30 AM61 °FClear.1 mph88%29.95 "Hg10 mi
12:00 AM61 °FClear.2 mph94%29.92 "Hg10 mi
11:30 PM
Sat, May 28
63 °FClear.1 mph83%29.92 "Hg10 mi
11:00 PM64 °FClear.1 mph78%29.92 "Hg10 mi
10:30 PM64 °FClear.1 mph78%29.95 "Hg10 mi
10:00 PM68 °FPassing clouds.5 mph69%29.95 "HgN/A
9:30 PM68 °FPassing clouds.5 mph69%29.95 "HgN/A
9:00 PM68 °FSunny.7 mph69%29.95 "Hg10 mi
8:30 PM70 °FSunny.6 mph64%29.95 "Hg10 mi
8:00 PM72 °FPassing clouds.7 mph61%29.92 "HgN/A
7:30 PM73 °FPassing clouds.6 mph61%29.92 "HgN/A
7:00 PM73 °FSunny.6 mph61%29.92 "Hg10 mi
6:30 PM75 °FPassing clouds.6 mph54%29.92 "HgN/A
6:00 PM77 °FPassing clouds.7 mph51%29.95 "HgN/A
5:30 PM77 °FPassing clouds.10 mph51%29.92 "HgN/A
5:00 PM77 °FScattered clouds.9 mph51%29.92 "HgN/A
4:30 PM75 °FScattered clouds.8 mph54%29.92 "HgN/A
4:00 PM77 °FPassing clouds.8 mph51%29.92 "HgN/A
3:30 PM77 °FPassing clouds.8 mph51%29.95 "HgN/A
3:00 PM79 °FPassing clouds.3 mph45%29.95 "HgN/A
2:30 PM77 °FPassing clouds.5 mph44%29.95 "HgN/A
2:00 PM77 °FPassing clouds.6 mph47%29.95 "HgN/A
1:30 PM77 °FPassing clouds.8 mph47%29.98 "HgN/A
1:00 PM77 °FPassing clouds.7 mph44%29.98 "HgN/A
12:30 PM77 °FPassing clouds.5 mph51%29.98 "HgN/A
12:00 PM77 °FPassing clouds.7 mph47%29.98 "HgN/A
11:30 AM77 °FPassing clouds.6 mph47%29.98 "HgN/A
11:00 AM75 °FSunny.5 mph54%29.98 "Hg10 mi
10:30 AM73 °FPassing clouds.6 mph57%30.01 "HgN/A
10:00 AM73 °FSunny.2 mph53%30.01 "Hg10 mi
9:30 AM72 °FPassing clouds.3 mph61%30.01 "HgN/A
9:00 AM70 °FSunny.2 mph69%30.01 "Hg10 mi
8:30 AM68 °FPassing clouds.3 mph69%30.01 "HgN/A
8:00 AM66 °FPassing clouds.5 mph73%30.01 "HgN/A
7:30 AM64 °FPassing clouds.3 mph73%30.01 "HgN/A
7:00 AM63 °FPassing clouds.5 mph77%30.01 "HgN/A
6:30 AM61 °FSunny.6 mph83%30.01 "Hg10 mi
6:00 AM57 °FSunny.2 mph88%30.01 "Hg10 mi
5:30 AM57 °FClear.3 mph94%30.01 "Hg10 mi
5:00 AM55 °FClear.5 mph94%30.01 "Hg10 mi
4:30 AM55 °FClear.2 mph94%30.01 "Hg10 mi
4:00 AM57 °FClear.2 mph88%30.01 "Hg10 mi
Weather by CustomWeather, © 2016

See weather overviewHow to use our weather pages